Notices

What's New in latest Release from April 7th, 2021:

- Updated Glossary, including Speed of Maximum Gust, and Total Hourly Precipitation

- Updated national and regional climate services offices contacts and prices information

- Addition of station inventory lists for 1981-2010, 1971-2000, and 1961-1990 Normals.

If you haven't already, please take our survey and provide feedback about our website: https://eccc.sondage-survey.ca/f/LanguageSelection.aspx?s=442ca660-fcf1-47c0-95a9-59707d6fd709

Hourly Data Report for January 06, 2020

SATURNA ISLAND CS
BRITISH COLUMBIA
Current Station Operator: ECCC - MSC

48°47'02.067" N
123°02'41.082" W
24.40 m
1017101
71473
WEZ

Download Data

Hourly Data (January 2020)
Hourly Data Report for January 6, 2020
TIME
LST
Temp Definition
°C
Dew Point Definition
°C
Rel Hum Definition
%
Precip. Amount Definition
mm

Wind Dir Definition
10's deg

Wind Spd Definition
km/h
Visibility Definition
km
Stn Press Definition
kPa
Hmdx Definition


Wind Chill Definition


Weather Definition


00:00 5.4 4.0 91 1.6 17 13   102.18     LegendNANA
01:00 5.7 4.1 90 0.2 14 15   102.06     LegendNANA
02:00 6.1 4.2 88 0.2 14 21   101.96     LegendNANA
03:00 6.1 4.3 88 0.4 17 34   101.86     LegendNANA
04:00 6.0 4.5 90 0.2 16 29   101.74     LegendNANA
05:00 5.9 4.5 90 0.6 17 36   101.60     LegendNANA
06:00 6.0 4.8 92 0.6 16 36   101.50     LegendNANA
07:00 6.2 5.2 93 1.0 16 31   101.41     LegendNANA
08:00 6.6 5.7 94 0.8 16 23   101.37     LegendNANA
09:00 7.1 6.2 94 1.0 16 19   101.36     LegendNANA
10:00 6.9 6.1 95 1.8 10 10   101.39     LegendNANA
11:00 5.4 4.8 96 2.6 7 27   101.36     LegendNANA
12:00 6.7 6.1 96 0.2 10 22   101.29     LegendNANA
13:00 6.0 5.5 97 0.2 5 17   101.32     LegendNANA
14:00 5.7 5.3 97 0.2 6 21   101.28     LegendNANA
15:00 5.6 5.1 97 0.0 5 18   101.34     LegendNANA
16:00 5.4 4.9 97 0.0 3 11   101.39     LegendNANA
17:00 5.3 4.9 97 0.0 3 11   101.41     LegendNANA
18:00 5.5 5.1 97 0.0 3 9   101.40     LegendNANA
19:00 5.7 5.3 97 0.0 4 4   101.39     LegendNANA
20:00 5.9 5.5 98 0.0 30 2   101.36     LegendNANA
21:00 6.1 5.7 98 0.0 1 8   101.37     LegendNANA
22:00 6.0 5.6 98 0.6 4 11   101.29     LegendNANA
23:00 6.4 6.1 98 2.2 4 10   101.21     LegendNANA

Notes on Data Quality.

Legend

  • E = Estimated
  • M = Missing
  • NA = Not Available*
  • [empty] = Indicates an unobserved value
Date modified: